Whiteman Air Force Base Knob noster US
ICAO: KSZL
IATA: SZL
Category: Large
Scheduled Services: No

Elevation: 870 ft
TransAlt. 18000 ft.

Airport Communications:
ARNG HAWK OPS:49.65
APP:127.45
ATIS:139.3
CLNC DEL:121.75
DEP:125.925
GND:128.275
303 TFS OPS:22.78
PMSV METRO:34.46
COMD POST:31.1
PTD:118.725
TWR:132.4

KSZL Zoom In..

If you have problems with the map follow the link
https://www.worldairports.se/pages/airport.php?
ICAO=KSZL

Runways:

(A) RW 01 length 12400 ft width 200 ft
ILS 110.30 / hdg 7

(B) RW 19 length 12400 ft width 200 ft
ILS 108.50 / hdg 187

Location; KSZL
Day. 16 / Time. 22.56 Zulu
* Altimeter: 29.99
* Temperature: 10° c. 50°f.
* Wind from: 150° Speed 04 kn.
Dewpoint: 01° c.
Visibility: 10 Statute Miles.
Clouds: Clear (automated report).

KSZL 162256Z 15004KT 10SM CLR 10/01 A2999 RMK AO2A SLP162 T00950014 $


Wind From 150°
Speed 04 kn.

 
 
jpsmedia.com for Web Design worldairports.se 2018   terms of use